CGAS -KSAN

Flight info

Callsign CGAS
Flight time N/A
Altitude VFR
Route SLI8 SLI ALBAS V25 PACIF CARDI MZB
Aircraft PC12/L-SDFGRWY/S

Departure

Time N/A
Airport -

Arrival

Time 2026-04-23 02:41
Airport San Diego International Airport (KSAN)
Time Latitude Longitude Altitude Speed Heading
2026-04-23 02:04 32.73115 -117.13938 2464 ft 173 kts 106°
2026-04-23 02:04 32.72738 -117.12480 2144 ft 179 kts 105°
2026-04-23 02:05 32.72396 -117.11087 2081 ft 176 kts 104°
2026-04-23 02:05 32.72069 -117.09667 2072 ft 180 kts 103°
2026-04-23 02:05 32.71762 -117.08236 2077 ft 178 kts 102°
2026-04-23 02:05 32.71429 -117.06827 2075 ft 177 kts 108°
2026-04-23 02:06 32.71037 -117.05446 2049 ft 177 kts 124°
2026-04-23 02:06 32.69960 -117.05150 2243 ft 176 kts 208°
2026-04-23 02:06 32.69470 -117.06382 2200 ft 179 kts 288°
2026-04-23 02:06 32.70014 -117.07500 2079 ft 146 kts 304°
2026-04-23 02:07 32.70600 -117.08529 1830 ft 148 kts 308°
2026-04-23 02:07 32.71222 -117.09466 1593 ft 139 kts 309°
2026-04-23 02:07 32.71774 -117.10369 1379 ft 135 kts 297°
2026-04-23 02:07 32.71941 -117.11459 1151 ft 135 kts 272°
2026-04-23 02:08 32.71973 -117.12521 1126 ft 121 kts 274°
2026-04-23 02:08 32.72060 -117.13493 1028 ft 117 kts 279°
2026-04-23 02:08 32.72238 -117.14402 777 ft 106 kts 287°
2026-04-23 02:08 32.72441 -117.15189 604 ft 100 kts 286°
2026-04-23 02:09 32.72634 -117.15993 465 ft 100 kts 285°
2026-04-23 02:09 32.72823 -117.16772 301 ft 97 kts 286°
2026-04-23 02:09 32.73002 -117.17500 135 ft 90 kts 285°
2026-04-23 02:09 32.73176 -117.18229 45 ft 89 kts 287°
2026-04-23 02:10 32.73337 -117.18873 21 ft 85 kts 287°
2026-04-23 02:10 32.73529 -117.19649 288 ft 116 kts 288°
2026-04-23 02:10 32.73819 -117.20716 912 ft 135 kts 292°
2026-04-23 02:10 32.74099 -117.21740 1892 ft 137 kts 290°
2026-04-23 02:11 32.74529 -117.22845 2455 ft 161 kts 318°
2026-04-23 02:11 32.75669 -117.23054 3001 ft 189 kts 20°
2026-04-23 02:11 32.76349 -117.21721 3150 ft 222 kts 99°
2026-04-23 02:11 32.75559 -117.20110 2499 ft 234 kts 117°
2026-04-23 02:12 32.74921 -117.18453 2082 ft 212 kts 112°
2026-04-23 02:12 32.74445 -117.16883 1825 ft 192 kts 107°
2026-04-23 02:12 32.74097 -117.15548 1778 ft 151 kts 108°
2026-04-23 02:12 32.73785 -117.14418 1469 ft 136 kts 109°
2026-04-23 02:13 32.73430 -117.13366 1287 ft 137 kts 114°
2026-04-23 02:13 32.73030 -117.12355 1215 ft 131 kts 117°
2026-04-23 02:13 32.72429 -117.11817 1420 ft 103 kts 186°
2026-04-23 02:13 32.71920 -117.12208 1322 ft 85 kts 270°
2026-04-23 02:14 32.72075 -117.12908 1191 ft 91 kts 274°
2026-04-23 02:14 32.72049 -117.13638 990 ft 85 kts 278°
2026-04-23 02:14 32.72209 -117.14309 779 ft 88 kts 289°
2026-04-23 02:14 32.72365 -117.14973 631 ft 83 kts 286°
2026-04-23 02:15 32.72660 -117.16147 349 ft 72 kts 287°
2026-04-23 02:15 32.72819 -117.16736 283 ft 83 kts 292°
2026-04-23 02:15 32.72957 -117.17364 180 ft 74 kts 287°
2026-04-23 02:16 32.73100 -117.17923 88 ft 72 kts 288°
2026-04-23 02:16 32.73234 -117.18478 33 ft 65 kts 291°
2026-04-23 02:16 32.73347 -117.18952 22 ft 53 kts 290°
2026-04-23 02:16 32.73469 -117.19433 136 ft 70 kts 285°
2026-04-23 02:17 32.73597 -117.20003 580 ft 74 kts 283°
2026-04-23 02:17 32.73727 -117.20654 1016 ft 88 kts 281°
2026-04-23 02:17 32.73829 -117.21451 1350 ft 107 kts 280°
2026-04-23 02:17 32.74025 -117.22481 1476 ft 154 kts 299°
2026-04-23 02:18 32.75020 -117.23015 2017 ft 183 kts
2026-04-23 02:18 32.75906 -117.21793 2082 ft 231 kts 81°
2026-04-23 02:18 32.75650 -117.20039 2239 ft 206 kts 104°
2026-04-23 02:18 32.75279 -117.18422 2196 ft 201 kts 103°
2026-04-23 02:19 32.74979 -117.16827 2345 ft 197 kts 100°
2026-04-23 02:19 32.74719 -117.15365 2598 ft 159 kts 96°
2026-04-23 02:19 32.74667 -117.14148 3083 ft 146 kts 91°
2026-04-23 02:19 32.74424 -117.12765 2395 ft 183 kts 108°
2026-04-23 02:20 32.73858 -117.11659 2209 ft 142 kts 125°
2026-04-23 02:20 32.73631 -117.10503 1962 ft 143 kts 89°
2026-04-23 02:20 32.73862 -117.09425 2005 ft 135 kts 63°
2026-04-23 02:20 32.74356 -117.08377 2115 ft 155 kts 55°
2026-04-23 02:21 32.75224 -117.07581 2134 ft 167 kts 22°
2026-04-23 02:21 32.76326 -117.07025 2143 ft 176 kts 20°
2026-04-23 02:21 32.77459 -117.06465 2141 ft 177 kts 19°
2026-04-23 02:21 32.78593 -117.05882 2146 ft 178 kts 19°
2026-04-23 02:22 32.79738 -117.05312 2126 ft 177 kts 14°
2026-04-23 02:22 32.80887 -117.05428 2090 ft 162 kts 326°
2026-04-23 02:22 32.81391 -117.06494 2096 ft 157 kts 275°
2026-04-23 02:22 32.81099 -117.07794 2110 ft 169 kts 247°
2026-04-23 02:23 32.80149 -117.08614 2102 ft 177 kts 200°
2026-04-23 02:23 32.78907 -117.08450 2105 ft 189 kts 163°
2026-04-23 02:23 32.77756 -117.07741 2132 ft 186 kts 157°
2026-04-23 02:23 32.76596 -117.07138 2142 ft 182 kts 178°
2026-04-23 02:24 32.75378 -117.07225 2144 ft 169 kts 195°
2026-04-23 02:24 32.74303 -117.06960 2151 ft 165 kts 144°
2026-04-23 02:24 32.73888 -117.05702 2141 ft 166 kts 86°
2026-04-23 02:24 32.74074 -117.04355 2060 ft 166 kts 81°
2026-04-23 02:25 32.74251 -117.03016 2018 ft 162 kts 83°
2026-04-23 02:25 32.74373 -117.01781 2035 ft 139 kts 85°
2026-04-23 02:25 32.74155 -117.00803 2058 ft 124 kts 147°
2026-04-23 02:25 32.73443 -117.00806 2041 ft 97 kts 239°
2026-04-23 02:26 32.73118 -117.01457 2047 ft 91 kts 253°
2026-04-23 02:26 32.72885 -117.02194 1897 ft 100 kts 256°
2026-04-23 02:26 32.72625 -117.02911 1964 ft 91 kts 255°
2026-04-23 02:26 32.72262 -117.03566 1891 ft 100 kts 242°
2026-04-23 02:27 32.71888 -117.04260 1920 ft 98 kts 244°
2026-04-23 02:27 32.71621 -117.04991 1849 ft 93 kts 255°
2026-04-23 02:27 32.71358 -117.05673 1901 ft 91 kts 249°
2026-04-23 02:27 32.71122 -117.06403 1755 ft 97 kts 259°
2026-04-23 02:28 32.70937 -117.07219 1715 ft 107 kts 261°
2026-04-23 02:28 32.70831 -117.08132 1709 ft 112 kts 272°
2026-04-23 02:28 32.70898 -117.09031 1787 ft 106 kts 282°
2026-04-23 02:28 32.71061 -117.09869 1843 ft 105 kts 288°
2026-04-23 02:29 32.71296 -117.10709 1846 ft 110 kts 289°
2026-04-23 02:29 32.71538 -117.11599 1767 ft 118 kts 289°
2026-04-23 02:29 32.71777 -117.12530 1680 ft 118 kts 288°
2026-04-23 02:29 32.72000 -117.13461 1344 ft 108 kts 287°
2026-04-23 02:30 32.72178 -117.14285 978 ft 98 kts 289°
2026-04-23 02:30 32.72383 -117.15013 759 ft 90 kts 289°
2026-04-23 02:30 32.72567 -117.15698 545 ft 86 kts 286°
2026-04-23 02:30 32.72724 -117.16390 357 ft 87 kts 290°
2026-04-23 02:31 32.72894 -117.17079 257 ft 87 kts 286°
2026-04-23 02:31 32.73051 -117.17742 120 ft 81 kts 292°
2026-04-23 02:31 32.73155 -117.18155 49 ft 76 kts 289°
2026-04-23 02:31 32.73298 -117.18731 17 ft 65 kts 288°
2026-04-23 02:32 32.73452 -117.19334 132 ft 92 kts 288°
2026-04-23 02:32 32.73662 -117.20151 452 ft 115 kts 288°
2026-04-23 02:32 32.74462 -117.21201 877 ft 161 kts 342°
2026-04-23 02:32 32.75526 -117.20735 1646 ft 185 kts 44°
2026-04-23 02:33 32.75869 -117.19734 1929 ft 209 kts 84°
2026-04-23 02:33 32.75345 -117.18053 2004 ft 234 kts 119°
2026-04-23 02:33 32.74474 -117.16381 2078 ft 239 kts 121°
2026-04-23 02:33 32.73724 -117.14641 2220 ft 238 kts 114°
2026-04-23 02:34 32.73125 -117.12795 2154 ft 240 kts 107°
2026-04-23 02:34 32.72642 -117.10904 1964 ft 241 kts 104°
2026-04-23 02:34 32.72154 -117.09043 2070 ft 231 kts 107°
2026-04-23 02:34 32.71620 -117.07263 2088 ft 232 kts 110°
2026-04-23 02:35 32.70801 -117.05786 2536 ft 208 kts 152°
2026-04-23 02:35 32.69418 -117.05981 2699 ft 218 kts 218°
2026-04-23 02:35 32.68738 -117.07585 2269 ft 230 kts 267°
2026-04-23 02:35 32.69286 -117.09307 1992 ft 224 kts 301°
2026-04-23 02:36 32.69794 -117.11043 1860 ft 222 kts 282°
2026-04-23 02:36 32.70041 -117.12820 1848 ft 220 kts 280°
2026-04-23 02:36 32.70309 -117.14628 1842 ft 219 kts 281°
2026-04-23 02:36 32.70576 -117.16408 1838 ft 219 kts 281°
2026-04-23 02:37 32.70835 -117.18156 1887 ft 216 kts 281°
2026-04-23 02:37 32.71076 -117.19919 2048 ft 217 kts 281°
2026-04-23 02:37 32.71305 -117.21657 2036 ft 209 kts 282°
2026-04-23 02:37 32.71929 -117.23156 2037 ft 206 kts 318°
2026-04-23 02:38 32.73255 -117.23706 2037 ft 209 kts
2026-04-23 02:38 32.74543 -117.22965 2059 ft 213 kts 44°
2026-04-23 02:38 32.75240 -117.21412 2054 ft 220 kts 78°
2026-04-23 02:38 32.75297 -117.19588 2046 ft 223 kts 90°
2026-04-23 02:39 32.75163 -117.17836 1823 ft 198 kts 96°
2026-04-23 02:39 32.74925 -117.16326 1410 ft 184 kts 101°
2026-04-23 02:39 32.74584 -117.14929 1258 ft 171 kts 122°
2026-04-23 02:39 32.73590 -117.14762 1239 ft 156 kts 221°
2026-04-23 02:40 32.73111 -117.15649 885 ft 105 kts 247°
2026-04-23 02:40 32.72928 -117.16415 566 ft 92 kts 262°
2026-04-23 02:40 32.72931 -117.17156 301 ft 88 kts 279°
2026-04-23 02:40 32.73085 -117.17836 98 ft 83 kts 288°
2026-04-23 02:41 32.73236 -117.18460 33 ft 73 kts 287°
2026-04-23 02:41 32.73367 -117.18992 22 ft 63 kts 289°
2026-04-23 02:41 32.73474 -117.19439 23 ft 34 kts 284°
2026-04-23 02:41 32.73412 -117.19490 24 ft 21 kts 185°
2026-04-23 02:42 32.73366 -117.19439 23 ft 9 kts 105°
2026-04-23 02:42 32.73350 -117.19371 22 ft 9 kts 104°
2026-04-23 02:42 32.73336 -117.19315 20 ft 2 kts 150°
2026-04-23 02:42 32.73332 -117.19314 20 ft 0 kts 172°
2026-04-23 02:43 32.73315 -117.19318 20 ft 7 kts 207°
2026-04-23 02:43 32.73271 -117.19339 21 ft 4 kts 194°
2026-04-23 02:43 32.73269 -117.19340 21 ft 0 kts 195°
2026-04-23 02:45 32.73262 -117.19340 21 ft 2 kts 158°
2026-04-23 02:45 32.73251 -117.19325 21 ft 0 kts 103°
2026-04-23 02:46 32.73261 -117.19279 24 ft 10 kts 47°
2026-04-23 02:46 32.73299 -117.19194 20 ft 12 kts 91°
2026-04-23 02:46 32.73301 -117.19203 20 ft 0 kts 96°
2026-04-23 02:46 32.73278 -117.19073 22 ft 26 kts 103°
2026-04-23 02:47 32.73232 -117.18877 23 ft 22 kts 107°
2026-04-23 02:47 32.73192 -117.18713 29 ft 21 kts 105°
2026-04-23 02:47 32.73151 -117.18537 27 ft 24 kts 104°
2026-04-23 02:47 32.73099 -117.18328 29 ft 29 kts 105°
2026-04-23 02:48 32.73061 -117.18171 24 ft 12 kts 97°
2026-04-23 02:48 32.73064 -117.18134 24 ft 0 kts 66°
2026-04-23 02:49 32.73066 -117.18129 24 ft 4 kts 61°
2026-04-23 02:49 32.73116 -117.18113 24 ft 13 kts 331°
2026-04-23 02:49 32.73183 -117.18250 29 ft 26 kts 286°
2026-04-23 02:50 32.73268 -117.18595 36 ft 93 kts 286°
2026-04-23 02:51 32.73493 -117.19514 125 ft 135 kts 284°
2026-04-23 02:51 32.73738 -117.20679 669 ft 145 kts 287°
2026-04-23 02:51 32.74006 -117.21831 1268 ft 155 kts 289°
2026-04-23 02:51 32.74695 -117.22889 1551 ft 181 kts 333°
2026-04-23 02:52 32.75927 -117.22585 1793 ft 209 kts 45°
2026-04-23 02:52 32.76278 -117.20908 1799 ft 230 kts 95°
2026-04-23 02:52 32.75923 -117.19011 1912 ft 240 kts 105°
2026-04-23 02:52 32.75397 -117.17184 2202 ft 236 kts 109°
2026-04-23 02:53 32.74799 -117.15464 2480 ft 228 kts 115°
2026-04-23 02:53 32.74106 -117.13808 2871 ft 222 kts 118°
2026-04-23 02:53 32.72982 -117.12567 2696 ft 229 kts 161°
2026-04-23 02:53 32.71706 -117.13031 1841 ft 193 kts 250°
2026-04-23 02:54 32.71973 -117.14408 1057 ft 149 kts 298°
2026-04-23 02:54 32.72381 -117.15325 587 ft 109 kts 293°
2026-04-23 02:54 32.72634 -117.16100 375 ft 98 kts 288°
2026-04-23 02:54 32.72844 -117.16864 250 ft 98 kts 286°
2026-04-23 02:55 32.73036 -117.17637 131 ft 94 kts 285°
2026-04-23 02:55 32.73200 -117.18327 33 ft 81 kts 284°
2026-04-23 02:55 32.73348 -117.18949 32 ft 84 kts 284°
2026-04-23 02:55 32.73529 -117.19693 395 ft 97 kts 284°
2026-04-23 02:56 32.73725 -117.20500 807 ft 117 kts 288°
2026-04-23 02:56 32.74024 -117.21590 1144 ft 156 kts 288°
2026-04-23 02:56 32.74417 -117.22945 1423 ft 191 kts 288°
2026-04-23 02:56 32.74852 -117.24508 1736 ft 206 kts 288°
2026-04-23 02:57 32.75299 -117.26191 1828 ft 221 kts 287°
2026-04-23 02:57 32.75771 -117.27957 1824 ft 226 kts 290°
2026-04-23 02:57 32.76713 -117.29422 1807 ft 229 kts 327°
2026-04-23 02:57 32.78245 -117.29876 1807 ft 230 kts 360°
2026-04-23 02:58 32.79723 -117.29224 1809 ft 232 kts 40°
2026-04-23 02:58 32.80491 -117.27582 1809 ft 233 kts 81°
2026-04-23 02:58 32.80195 -117.25725 1812 ft 231 kts 115°
2026-04-23 02:58 32.79635 -117.23960 1822 ft 232 kts 106°
2026-04-23 02:59 32.79091 -117.22158 1826 ft 232 kts 116°
2026-04-23 02:59 32.78303 -117.20480 1824 ft 233 kts 121°
2026-04-23 02:59 32.77479 -117.18827 1824 ft 233 kts 121°
2026-04-23 02:59 32.76652 -117.17175 1867 ft 232 kts 121°
2026-04-23 03:00 32.75824 -117.15524 1868 ft 233 kts 121°
2026-04-23 03:00 32.74993 -117.13870 1868 ft 233 kts 122°
2026-04-23 03:00 32.73836 -117.12571 1863 ft 232 kts 154°
2026-04-23 03:00 32.72272 -117.12245 1863 ft 231 kts 188°
2026-04-23 03:01 32.70895 -117.13133 1864 ft 230 kts 229°
2026-04-23 03:01 32.70352 -117.14866 1863 ft 229 kts 270°
2026-04-23 03:01 32.70906 -117.16600 1862 ft 230 kts 311°
2026-04-23 03:01 32.71953 -117.18000 1861 ft 228 kts 297°
2026-04-23 03:02 32.72403 -117.19774 1874 ft 228 kts 282°
2026-04-23 03:02 32.72718 -117.21622 1881 ft 229 kts 281°
2026-04-23 03:02 32.73025 -117.23477 1883 ft 229 kts 281°
2026-04-23 03:02 32.73333 -117.25337 1880 ft 230 kts 281°
2026-04-23 03:03 32.73640 -117.27197 1882 ft 229 kts 281°
2026-04-23 03:03 32.73948 -117.29056 1883 ft 229 kts 281°
2026-04-23 03:03 32.74255 -117.30916 1879 ft 229 kts 281°
2026-04-23 03:03 32.74613 -117.32758 1873 ft 229 kts 292°
2026-04-23 03:04 32.75675 -117.34116 1863 ft 230 kts 333°
2026-04-23 03:04 32.77220 -117.34308 1862 ft 232 kts 14°
2026-04-23 03:04 32.78522 -117.33240 1862 ft 233 kts 54°
2026-04-23 03:04 32.78980 -117.31421 1868 ft 232 kts 86°
2026-04-23 03:05 32.79004 -117.29500 1880 ft 233 kts 90°
2026-04-23 03:05 32.78984 -117.27574 1882 ft 233 kts 91°
2026-04-23 03:05 32.78746 -117.25685 1876 ft 233 kts 107°
2026-04-23 03:05 32.78185 -117.23881 1879 ft 233 kts 111°
2026-04-23 03:06 32.77587 -117.22091 1881 ft 233 kts 112°
2026-04-23 03:06 32.77011 -117.20291 1879 ft 233 kts 106°
2026-04-23 03:06 32.76717 -117.18400 1878 ft 233 kts 98°
2026-04-23 03:06 32.76515 -117.16549 1871 ft 206 kts 97°
2026-04-23 03:07 32.76357 -117.15010 1855 ft 171 kts 97°
2026-04-23 03:07 32.76230 -117.13755 1855 ft 134 kts 97°
2026-04-23 03:07 32.76131 -117.12783 1848 ft 120 kts 96°
2026-04-23 03:07 32.76018 -117.11665 1883 ft 148 kts 97°
2026-04-23 03:08 32.75883 -117.10389 1884 ft 161 kts 99°
2026-04-23 03:08 32.75446 -117.09163 1938 ft 162 kts 118°
2026-04-23 03:08 32.75042 -117.07888 2030 ft 165 kts 111°
2026-04-23 03:08 32.74586 -117.06598 1990 ft 171 kts 115°
2026-04-23 03:09 32.74065 -117.05360 1955 ft 166 kts 117°
2026-04-23 03:09 32.73430 -117.04267 1867 ft 157 kts 143°
2026-04-23 03:09 32.72441 -117.03961 1720 ft 145 kts 193°
2026-04-23 03:09 32.71653 -117.04753 1745 ft 160 kts 244°
2026-04-23 03:10 32.71264 -117.06013 1749 ft 166 kts 253°
2026-04-23 03:10 32.70956 -117.07328 1729 ft 154 kts 255°
2026-04-23 03:10 32.70866 -117.08565 1527 ft 155 kts 273°
2026-04-23 03:10 32.71057 -117.09794 1575 ft 154 kts 284°
2026-04-23 03:11 32.71359 -117.11041 1546 ft 160 kts 288°
2026-04-23 03:11 32.71719 -117.12255 1474 ft 155 kts 289°
2026-04-23 03:11 32.72037 -117.13362 1171 ft 125 kts 287°
2026-04-23 03:11 32.72243 -117.14280 858 ft 120 kts 283°
2026-04-23 03:12 32.72449 -117.15222 627 ft 115 kts 285°
2026-04-23 03:12 32.72656 -117.16078 399 ft 101 kts 285°
2026-04-23 03:12 32.72845 -117.16859 237 ft 98 kts 285°
2026-04-23 03:12 32.73037 -117.17644 107 ft 96 kts 286°
2026-04-23 03:13 32.73213 -117.18379 33 ft 87 kts 286°
2026-04-23 03:13 32.73362 -117.18998 24 ft 69 kts 286°
2026-04-23 03:13 32.73490 -117.19520 23 ft 63 kts 285°
2026-04-23 03:13 32.73516 -117.19841 25 ft 18 kts 192°
2026-04-23 03:14 32.73438 -117.19735 23 ft 14 kts 105°